Погода в Старом Бисере

Россия / Пермский край     58°24′44″N   58°53′07″E
темп.,
°C
ветер,
м/с
пор.,
м/с
влажн.,
%
обл.,
%
осадки,
мм/ч
давл.,
гПа
погр.,
м
12 мая, ср
ср1223:00+11ссз228163 0.0 102816
02:00+9ссз117966 0.0 102910
05:00+8ссз1173100 0.0 103010
08:00+13сз12495 0.0 1030264
11:00+19сз234015 0.0 10291293
14:00+21сз333782 0.0 10281968
17:00+21сз343871 0.0 10281829
20:00+17зсз2556100 0.0 1027101
13 мая, чт
чт1323:00+13зсз2268100 0.0 102814
02:00+12з117364 0.0 102810
05:00+11з1176100 0.0 102812
08:00+16зсз265784 0.0 1028309
11:00+21сз454131 0.0 10281325
14:00+24сз443416 0.0 10271819
17:00+24сз333364 0.0 10261899
20:00+20зсз225016 0.0 102612
14 мая, пт
пт1423:00+15сз11615 0.0 102711
02:00+14зюз11655 0.0 102711
05:00+12зюз1170100 0.0 102710
08:00+18зюз265693 0.0 1026263
11:00+23зюз463985 0.0 10251281
14:00+25з56315 0.0 10242161
17:00+25зюз47328 0.0 10232621
20:00+22юз494530 0.0 1022389
15 мая, сб
сб1523:00+16зюз31163100 0.0 1022265
02:00+14юз237258 0.0 102259
05:00+13юз267877 0.0 1022112
08:00+18зюз4126074 0.0 1021482
11:00+23зюз6124398 0.0 10201467
14:00+25зюз7113418 0.0 10192367
17:00+27зюз6113171 0.0 10182830
20:00+22зюз5124298 0.1 1017807
16 мая, вс
вс1623:00+17зюз3116427 0.3 1017322
02:00+14зюз117787 0.1 101811
05:00+14зюз227983 0.1 101821
08:00+19зюз376083 0.0 1018339
11:00+23зюз5840100 0.0 1018880
14:00+26зюз692620 0.0 10171836
17:00+27зюз59255 0.0 10162395
20:00+23юз410405 0.0 1015399